Location: York
(31.8935°S, 116.7682°E)
Time: 07:25:16
(UTC+08:00)

N. Korean satellite - Pass Details

Date: 19 May 2021
Orbit: 450 x 500 km, 97.2° (Epoch: 13 June)

Event Time Altitude Azimuth Distance (km) Brightness Sun altitude
Rises 05:29:18 0° 347° (NNW) 2,480 10.2 -18.5°
Reaches altitude 10° 05:31:34 10° 333° (NNW) 1,624 9.1 -18.1°
Enters shadow 05:31:52 12° 330° (NNW) 1,527 8.9 -18.0°
